,,,PA_Meas_PMT16A,,PR_Meas_QMR101_102,,RH_Meas_QMH101,,SR_Meas_QMS101,,TA_Meas_QMH101,,GenWind,,GenWind,
date,time,status,PA,status,PR,status,RH,status,SR,status,TA,status,DirAvg,status,SpdAvg,
2009-06-23, 00:00:04,VALID,1004.95,VALID,0,VALID,84.2686,VALID,0,VALID,25.6116,VALID,71,VALID,0.303906,
2009-06-23, 00:01:04,VALID,1004.92,VALID,0,VALID,84.2381,VALID,0,VALID,25.5921,VALID,68,VALID,0.141406,
2009-06-23, 00:02:04,VALID,1004.93,VALID,0,VALID,84.3068,VALID,0,VALID,25.5707,VALID,43,VALID,0.40625,
2009-06-23, 00:03:04,VALID,1004.92,VALID,0,VALID,84.3525,VALID,0,VALID,25.5532,VALID,88,VALID,0.379297,
2009-06-23, 00:04:04,VALID,1004.88,VALID,0,VALID,84.0931,VALID,0,VALID,25.5513,VALID,65,VALID,0.365234,
2009-06-23, 00:05:04,VALID,1004.89,VALID,0,VALID,84.1694,VALID,0,VALID,25.6116,VALID,72,VALID,0.441797,
2009-06-23, 00:06:04,VALID,1004.86,VALID,0,VALID,83.6583,VALID,0,VALID,25.6097,VALID,75,VALID,0.691406,
2009-06-23, 00:07:04,VALID,1004.88,VALID,0,VALID,83.6964,VALID,0,VALID,25.67,VALID,72,VALID,0.189063,
2009-06-23, 00:08:04,VALID,1004.83,VALID,0,VALID,83.5973,VALID,0,VALID,25.6895,VALID,75,VALID,0.316016,
2009-06-23, 00:09:04,VALID,1004.82,VALID,0,VALID,83.6736,VALID,0,VALID,25.6486,VALID,64,VALID,0.694531,
2009-06-23, 00:10:04,VALID,1004.81,VALID,0,VALID,83.5515,VALID,0,VALID,25.6525,VALID,81,VALID,0.986719,
2009-06-23, 00:11:04,VALID,1004.79,VALID,0,VALID,83.7346,VALID,0,VALID,25.6506,VALID,89,VALID,0.207813,
2009-06-23, 00:12:04,VALID,1004.78,VALID,0,VALID,83.8719,VALID,0,VALID,25.6097,VALID,90,VALID,0.578516,
2009-06-23, 00:13:04,VALID,1004.82,VALID,0,VALID,84.055,VALID,0,VALID,25.5727,VALID,116,VALID,0.966406,
2009-06-23, 00:14:04,VALID,1004.83,VALID,0,VALID,84.2152,VALID,0,VALID,25.5337,VALID,94,VALID,0.820703,
2009-06-23, 00:15:04,VALID,1004.78,VALID,0,VALID,84.383,VALID,0,VALID,25.5142,VALID,94,VALID,0.74375,
2009-06-23, 00:16:04,VALID,1004.8,VALID,0,VALID,84.5051,VALID,0,VALID,25.4539,VALID,96,VALID,0.541016,
2009-06-23, 00:17:04,VALID,1004.78,VALID,0,VALID,84.8789,VALID,0,VALID,25.4577,VALID,88,VALID,0.611328,
2009-06-23, 00:18:04,VALID,1004.79,VALID,0,VALID,85.1841,VALID,0,VALID,25.3779,VALID,70,VALID,0.445313,
2009-06-23, 00:19:05,VALID,1004.79,VALID,0,VALID,85.5503,VALID,0,VALID,25.3195,VALID,70,VALID,0.286328,
2009-06-23, 00:20:05,VALID,1004.75,VALID,0,VALID,85.68,VALID,0,VALID,25.2397,VALID,70,VALID,0.601953,
2009-06-23, 00:21:05,VALID,1004.76,VALID,0,VALID,85.8173,VALID,0,VALID,25.2221,VALID,70,VALID,0.246484,
2009-06-23, 00:22:05,VALID,1004.75,VALID,0,VALID,85.9012,VALID,0,VALID,25.2027,VALID,74,VALID,0.602344,
2009-06-23, 00:23:05,VALID,1004.73,VALID,0,VALID,86.1529,VALID,0,VALID,25.1637,VALID,74,VALID,0.309375,
2009-06-23, 00:24:05,VALID,1004.74,VALID,0,VALID,86.5725,VALID,0,VALID,25.1053,VALID,74,VALID,0.182031,
2009-06-23, 00:25:05,VALID,1004.7,VALID,0,VALID,86.9464,VALID,0,VALID,25.0663,VALID,74,VALID,0.208203,
2009-06-23, 00:26:05,VALID,1004.71,VALID,0,VALID,87.1218,VALID,0,VALID,25.0079,VALID,78,VALID,0.251953,
2009-06-23, 00:27:05,VALID,1004.68,VALID,0,VALID,87.3507,VALID,0,VALID,24.9495,VALID,78,VALID,0,
2009-06-23, 00:28:05,VALID,1004.67,VALID,0,VALID,87.5795,VALID,0,VALID,24.9106,VALID,78,VALID,0.258594,
2009-06-23, 00:29:05,VALID,1004.69,VALID,0,VALID,87.7398,VALID,0,VALID,24.8716,VALID,57,VALID,0.552734,
2009-06-23, 00:30:05,VALID,1004.67,VALID,0,VALID,87.9457,VALID,0,VALID,24.8132,VALID,55,VALID,0.319922,
2009-06-23, 00:31:05,VALID,1004.68,VALID,0,VALID,88.2661,VALID,0,VALID,24.7743,VALID,55,VALID,0.246094,
2009-06-23, 00:32:05,VALID,1004.69,VALID,0,VALID,88.5789,VALID,0,VALID,24.714,VALID,55,VALID,0.108984,
2009-06-23, 00:33:05,VALID,1004.69,VALID,0,VALID,88.701,VALID,0,VALID,24.6964,VALID,55,VALID,0.205859,
2009-06-23, 00:34:05,VALID,1004.7,VALID,0,VALID,88.8765,VALID,0,VALID,24.638,VALID,55,VALID,0.101563,
2009-06-23, 00:35:05,VALID,1004.7,VALID,0,VALID,89.0443,VALID,0,VALID,24.6185,VALID,55,VALID,0.507422,
2009-06-23, 00:36:05,VALID,1004.69,VALID,0,VALID,89.2579,VALID,0,VALID,24.5796,VALID,55,VALID,0.392578,
2009-06-23, 00:37:05,VALID,1004.69,VALID,0,VALID,89.5249,VALID,0,VALID,24.5601,VALID,55,VALID,0.117578,
2009-06-23, 00:38:05,VALID,1004.7,VALID,0,VALID,89.7843,VALID,0,VALID,24.4998,VALID,55,VALID,0,
2009-06-23, 00:39:05,VALID,1004.73,VALID,0,VALID,89.9826,VALID,0,VALID,24.5017,VALID,55,VALID,0,
2009-06-23, 00:40:05,VALID,1004.72,VALID,0,VALID,90.1276,VALID,0,VALID,24.4609,VALID,55,VALID,0,
2009-06-23, 00:41:05,VALID,1004.72,VALID,0,VALID,90.2115,VALID,0,VALID,24.4238,VALID,76,VALID,0.388672,
2009-06-23, 00:42:05,VALID,1004.75,VALID,0,VALID,90.2649,VALID,0,VALID,24.4238,VALID,76,VALID,0.438281,
2009-06-23, 00:43:05,VALID,1004.74,VALID,0,VALID,90.1886,VALID,0,VALID,24.4238,VALID,74,VALID,0.483984,
2009-06-23, 00:44:05,VALID,1004.75,VALID,0,VALID,90.0894,VALID,0,VALID,24.4238,VALID,77,VALID,0.811328,
2009-06-23, 00:45:05,VALID,1004.74,VALID,0,VALID,89.9445,VALID,0.100563,VALID,24.4628,VALID,83,VALID,0.438281,
2009-06-23, 00:46:05,VALID,1004.74,VALID,0,VALID,89.7767,VALID,0,VALID,24.5017,VALID,81,VALID,0.544141,
2009-06-23, 00:47:05,VALID,1004.71,VALID,0,VALID,89.4868,VALID,0,VALID,24.5193,VALID,78,VALID,0.718359,
2009-06-23, 00:48:05,VALID,1004.72,VALID,0,VALID,89.1587,VALID,0,VALID,24.5972,VALID,80,VALID,0.427734,
2009-06-23, 00:49:05,VALID,1004.68,VALID,0,VALID,88.7849,VALID,0,VALID,24.6769,VALID,81,VALID,0.708984,
2009-06-23, 00:50:05,VALID,1004.67,VALID,0,VALID,88.4645,VALID,0,VALID,24.714,VALID,65,VALID,0.536328,
2009-06-23, 00:51:05,VALID,1004.63,VALID,0,VALID,88.1136,VALID,0,VALID,24.7937,VALID,77,VALID,0.932813,
2009-06-23, 00:52:05,VALID,1004.63,VALID,0,VALID,87.8542,VALID,0,VALID,24.8327,VALID,79,VALID,0.600781,
2009-06-23, 00:53:05,VALID,1004.64,VALID,0,VALID,87.6482,VALID,0,VALID,24.8308,VALID,84,VALID,0.759375,
2009-06-23, 00:54:05,VALID,1004.59,VALID,0,VALID,87.3965,VALID,0,VALID,24.8697,VALID,79,VALID,1.14844,
2009-06-23, 00:55:05,VALID,1004.59,VALID,0,VALID,86.9311,VALID,0,VALID,24.9671,VALID,81,VALID,0.672266,
2009-06-23, 00:56:05,VALID,1004.59,VALID,0,VALID,86.5039,VALID,0,VALID,25.045,VALID,82,VALID,0.621094,
2009-06-23, 00:57:05,VALID,1004.58,VALID,0,VALID,86.1682,VALID,0,VALID,25.1442,VALID,75,VALID,0.698438,
2009-06-23, 00:58:05,VALID,1004.6,VALID,0,VALID,85.8707,VALID,0.100563,VALID,25.1423,VALID,77,VALID,0.465625,
2009-06-23, 00:59:05,VALID,1004.59,VALID,0,VALID,85.5503,VALID,0,VALID,25.1813,VALID,81,VALID,1.07461,
2009-06-23, 01:00:05,VALID,1004.58,VALID,0,VALID,85.4435,VALID,0,VALID,25.2416,VALID,74,VALID,0.449219,
2009-06-23, 01:01:05,VALID,1004.59,VALID,0,VALID,85.2833,VALID,0,VALID,25.2416,VALID,76,VALID,0.738281,
2009-06-23, 01:02:05,VALID,1004.55,VALID,0,VALID,85.1002,VALID,0,VALID,25.2592,VALID,77,VALID,0.613672,
2009-06-23, 01:03:05,VALID,1004.55,VALID,0,VALID,84.9476,VALID,0,VALID,25.2786,VALID,81,VALID,0.73125,
2009-06-23, 01:04:05,VALID,1004.54,VALID,0,VALID,85.0162,VALID,0,VALID,25.2786,VALID,84,VALID,0.217578,
2009-06-23, 01:05:05,VALID,1004.53,VALID,0,VALID,85.062,VALID,0,VALID,25.2786,VALID,84,VALID,0.2875,
2009-06-23, 01:06:05,VALID,1004.46,VALID,0,VALID,85.1307,VALID,0,VALID,25.2397,VALID,84,VALID,0.482812,
2009-06-23, 01:07:05,VALID,1004.47,VALID,0,VALID,85.1154,VALID,0,VALID,25.3,VALID,53,VALID,0.469141,
2009-06-23, 01:08:05,VALID,1004.41,VALID,0,VALID,85.3901,VALID,0,VALID,25.2806,VALID,53,VALID,0.326562,
2009-06-23, 01:09:05,VALID,1004.42,VALID,0,VALID,85.9317,VALID,0,VALID,25.2221,VALID,37,VALID,0.469141,
2009-06-23, 01:10:05,VALID,1004.42,VALID,0,VALID,86.2064,VALID,0.100563,VALID,25.0839,VALID,37,VALID,0.209375,
2009-06-23, 01:11:05,VALID,1004.41,VALID,0,VALID,86.5039,VALID,0,VALID,25.0469,VALID,37,VALID,0.00234375,
2009-06-23, 01:12:05,VALID,1004.41,VALID,0,VALID,86.7556,VALID,0,VALID,24.9885,VALID,37,VALID,0.00351562,
2009-06-23, 01:13:05,VALID,1004.4,VALID,0,VALID,86.9998,VALID,0,VALID,24.9495,VALID,37,VALID,0,
2009-06-23, 01:14:05,VALID,1004.38,VALID,0,VALID,87.1828,VALID,0,VALID,24.8911,VALID,37,VALID,0,
2009-06-23, 01:15:05,VALID,1004.39,VALID,0,VALID,87.3965,VALID,0,VALID,24.8308,VALID,37,VALID,0,
2009-06-23, 01:16:05,VALID,1004.34,VALID,0,VALID,87.6635,VALID,0,VALID,24.7919,VALID,37,VALID,0,
2009-06-23, 01:17:05,VALID,1004.35,VALID,0,VALID,87.8466,VALID,0.100563,VALID,24.7529,VALID,81,VALID,0.175781,
2009-06-23, 01:18:05,VALID,1004.33,VALID,0,VALID,88.1212,VALID,0,VALID,24.714,VALID,84,VALID,0.0761719,
2009-06-23, 01:19:05,VALID,1004.29,VALID,0,VALID,88.4187,VALID,0.100563,VALID,24.7159,VALID,126,VALID,0.796094,
2009-06-23, 01:20:05,VALID,1004.28,VALID,0,VALID,88.5332,VALID,0.100563,VALID,24.6945,VALID,126,VALID,0.510156,
2009-06-23, 01:21:05,VALID,1004.26,VALID,0,VALID,88.6171,VALID,0.100563,VALID,24.6556,VALID,126,VALID,0.375391,
2009-06-23, 01:22:05,VALID,1004.27,VALID,0,VALID,88.5789,VALID,0,VALID,24.6574,VALID,125,VALID,0.322266,
2009-06-23, 01:23:05,VALID,1004.25,VALID,0,VALID,88.6476,VALID,0,VALID,24.6574,VALID,96,VALID,0.58125,
2009-06-23, 01:24:05,VALID,1004.24,VALID,0,VALID,88.7468,VALID,0,VALID,24.6166,VALID,95,VALID,0.584375,
2009-06-23, 01:25:05,VALID,1004.22,VALID,0,VALID,88.8078,VALID,0,VALID,24.6185,VALID,95,VALID,0.384375,
2009-06-23, 01:26:05,VALID,1004.27,VALID,0,VALID,88.8765,VALID,0,VALID,24.638,VALID,95,VALID,0.304688,
2009-06-23, 01:27:05,VALID,1004.24,VALID,0,VALID,88.8078,VALID,0,VALID,24.5972,VALID,90,VALID,0.747266,
2009-06-23, 01:28:05,VALID,1004.25,VALID,0,VALID,88.7925,VALID,0,VALID,24.6361,VALID,86,VALID,0.247266,
2009-06-23, 01:29:05,VALID,1004.25,VALID,0,VALID,88.907,VALID,0,VALID,24.6574,VALID,38,VALID,0.235156,
2009-06-23, 01:30:05,VALID,1004.23,VALID,0,VALID,89.0672,VALID,0,VALID,24.6185,VALID,38,VALID,0.558984,
2009-06-23, 01:31:05,VALID,1004.24,VALID,0,VALID,89.0595,VALID,0,VALID,24.6185,VALID,37,VALID,0.216406,
2009-06-23, 01:32:05,VALID,1004.2,VALID,0,VALID,88.9909,VALID,0,VALID,24.6185,VALID,37,VALID,0,
2009-06-23, 01:33:05,VALID,1004.18,VALID,0,VALID,88.6628,VALID,0,VALID,24.6361,VALID,22,VALID,0.498437,
2009-06-23, 01:34:05,VALID,1004.19,VALID,0,VALID,88.3424,VALID,0,VALID,24.7353,VALID,19,VALID,0.159375,
2009-06-23, 01:35:05,VALID,1004.14,VALID,0,VALID,87.9991,VALID,0,VALID,24.7919,VALID,19,VALID,0.0257812,
2009-06-23, 01:36:05,VALID,1004.14,VALID,0,VALID,87.8542,VALID,0,VALID,24.8327,VALID,19,VALID,0.245703,
2009-06-23, 01:37:05,VALID,1004.13,VALID,0,VALID,87.7092,VALID,0,VALID,24.8327,VALID,19,VALID,0.121094,
2009-06-23, 01:38:05,VALID,1004.1,VALID,0,VALID,87.488,VALID,0.100563,VALID,24.8716,VALID,19,VALID,0.305469,
2009-06-23, 01:39:05,VALID,1004.09,VALID,0,VALID,87.5338,VALID,0,VALID,24.9106,VALID,19,VALID,0.588281,
2009-06-23, 01:40:05,VALID,1004.08,VALID,0,VALID,87.4651,VALID,0,VALID,24.9106,VALID,22,VALID,0.409375,
2009-06-23, 01:41:05,VALID,1004.05,VALID,0,VALID,87.816,VALID,0,VALID,24.8697,VALID,22,VALID,0.262891,
2009-06-23, 01:42:05,VALID,1004.04,VALID,0,VALID,87.9076,VALID,0,VALID,24.8503,VALID,22,VALID,0.281641,
2009-06-23, 01:43:05,VALID,1003.98,VALID,0,VALID,88.022,VALID,0.100563,VALID,24.8522,VALID,22,VALID,0.260547,
2009-06-23, 01:44:05,VALID,1003.95,VALID,0,VALID,87.9381,VALID,0,VALID,24.8327,VALID,22,VALID,0.351172,
2009-06-23, 01:45:05,VALID,1003.96,VALID,0,VALID,88.1059,VALID,0,VALID,24.8327,VALID,22,VALID,0.2125,
2009-06-23, 01:46:05,VALID,1003.94,VALID,0,VALID,88.3348,VALID,0,VALID,24.7724,VALID,22,VALID,0.504297,
2009-06-23, 01:47:05,VALID,1003.94,VALID,0,VALID,88.5713,VALID,0,VALID,24.7548,VALID,11,VALID,0.838281,
2009-06-23, 01:48:05,VALID,1003.93,VALID,0,VALID,88.5713,VALID,0,VALID,24.7159,VALID,351,VALID,0.357812,
2009-06-23, 01:49:05,VALID,1003.93,VALID,0,VALID,88.7468,VALID,0.100563,VALID,24.7159,VALID,351,VALID,0.278906,
2009-06-23, 01:50:05,VALID,1003.94,VALID,0,VALID,88.9527,VALID,0,VALID,24.6574,VALID,351,VALID,0.264844,
2009-06-23, 01:51:05,VALID,1003.92,VALID,0,VALID,89.1664,VALID,0.100563,VALID,24.6574,VALID,351,VALID,0.323438,
2009-06-23, 01:52:05,VALID,1003.92,VALID,0,VALID,89.3723,VALID,0,VALID,24.6185,VALID,331,VALID,0.514844,
2009-06-23, 01:53:05,VALID,1003.94,VALID,0,VALID,89.5325,VALID,0,VALID,24.6185,VALID,331,VALID,0.447656,
2009-06-23, 01:54:05,VALID,1003.9,VALID,0,VALID,89.647,VALID,0.100563,VALID,24.5972,VALID,331,VALID,0.383594,
2009-06-23, 01:55:05,VALID,1003.92,VALID,0,VALID,89.6699,VALID,0,VALID,24.5796,VALID,331,VALID,0.500391,
2009-06-23, 01:56:05,VALID,1003.92,VALID,0,VALID,89.7461,VALID,0,VALID,24.5601,VALID,331,VALID,0.498828,
2009-06-23, 01:57:05,VALID,1003.88,VALID,0,VALID,89.9369,VALID,0,VALID,24.5193,VALID,331,VALID,0.269141,
2009-06-23, 01:58:05,VALID,1003.87,VALID,0,VALID,89.9979,VALID,0,VALID,24.459,VALID,337,VALID,0.0941406,
2009-06-23, 01:59:05,VALID,1003.87,VALID,0,VALID,89.7767,VALID,0,VALID,24.5388,VALID,29,VALID,0.212109,
2009-06-23, 02:00:05,VALID,1003.88,VALID,0,VALID,89.6699,VALID,0,VALID,24.5388,VALID,29,VALID,0.255469,
2009-06-23, 02:01:05,VALID,1003.85,VALID,0,VALID,89.6012,VALID,0,VALID,24.5388,VALID,77,VALID,0.186328,
2009-06-23, 02:02:05,VALID,1003.85,VALID,0,VALID,89.3342,VALID,0,VALID,24.5796,VALID,41,VALID,0.48125,
2009-06-23, 02:03:05,VALID,1003.84,VALID,0,VALID,89.1511,VALID,0,VALID,24.5777,VALID,35,VALID,0,
2009-06-23, 02:04:05,VALID,1003.86,VALID,0,VALID,88.9299,VALID,0,VALID,24.638,VALID,63,VALID,0.508594,
2009-06-23, 02:05:05,VALID,1003.85,VALID,0,VALID,88.6247,VALID,0,VALID,24.6964,VALID,75,VALID,0.659375,
2009-06-23, 02:06:05,VALID,1003.86,VALID,0,VALID,88.3348,VALID,0,VALID,24.7548,VALID,86,VALID,0.496875,
2009-06-23, 02:07:05,VALID,1003.83,VALID,0,VALID,88.0907,VALID,0,VALID,24.7743,VALID,17,VALID,0.655078,
2009-06-23, 02:08:05,VALID,1003.84,VALID,0,VALID,87.6329,VALID,0,VALID,24.8503,VALID,67,VALID,0.69375,
2009-06-23, 02:09:05,VALID,1003.81,VALID,0,VALID,86.9464,VALID,0,VALID,24.9885,VALID,54,VALID,0.288281,
2009-06-23, 02:10:05,VALID,1003.79,VALID,0,VALID,86.3589,VALID,0,VALID,25.0858,VALID,63,VALID,0.397656,
2009-06-23, 02:11:05,VALID,1003.81,VALID,0,VALID,85.9927,VALID,0,VALID,25.1637,VALID,77,VALID,0.613672,
2009-06-23, 02:12:05,VALID,1003.79,VALID,0,VALID,85.7028,VALID,0,VALID,25.1832,VALID,33,VALID,0.485547,
2009-06-23, 02:13:05,VALID,1003.78,VALID,0,VALID,85.3672,VALID,0,VALID,25.2202,VALID,60,VALID,0.362109,
2009-06-23, 02:14:05,VALID,1003.77,VALID,0,VALID,84.9094,VALID,0.100563,VALID,25.2786,VALID,68,VALID,0.346484,
2009-06-23, 02:15:05,VALID,1003.77,VALID,0,VALID,84.6577,VALID,0.100563,VALID,25.3176,VALID,48,VALID,0.448828,
2009-06-23, 02:16:05,VALID,1003.76,VALID,0,VALID,84.6729,VALID,0,VALID,25.3565,VALID,39,VALID,0.402734,
2009-06-23, 02:17:05,VALID,1003.77,VALID,0,VALID,84.6501,VALID,0,VALID,25.3779,VALID,44,VALID,0.289844,
2009-06-23, 02:18:05,VALID,1003.77,VALID,0,VALID,84.5738,VALID,0,VALID,25.3779,VALID,47,VALID,0.367578,
2009-06-23, 02:19:05,VALID,1003.78,VALID,0,VALID,84.7874,VALID,0,VALID,25.3584,VALID,77,VALID,0.315625,
2009-06-23, 02:20:05,VALID,1003.77,VALID,0,VALID,84.8103,VALID,0,VALID,25.3584,VALID,77,VALID,0.271875,
2009-06-23, 02:21:05,VALID,1003.78,VALID,0,VALID,84.856,VALID,0,VALID,25.2981,VALID,77,VALID,0.0910156,
2009-06-23, 02:22:05,VALID,1003.78,VALID,0,VALID,84.94,VALID,0,VALID,25.3195,VALID,78,VALID,0.288281,
2009-06-23, 02:23:05,VALID,1003.78,VALID,0,VALID,85.0925,VALID,0,VALID,25.2786,VALID,38,VALID,0.451953,
2009-06-23, 02:24:05,VALID,1003.78,VALID,0,VALID,85.0773,VALID,0,VALID,25.2592,VALID,38,VALID,0.434766,
2009-06-23, 02:25:05,VALID,1003.75,VALID,0,VALID,85.1917,VALID,0,VALID,25.2592,VALID,22,VALID,0.485938,
2009-06-23, 02:26:05,VALID,1003.73,VALID,0,VALID,85.4206,VALID,0,VALID,25.2592,VALID,5,VALID,0.520312,
2009-06-23, 02:27:05,VALID,1003.74,VALID,0,VALID,86.1148,VALID,0,VALID,25.2416,VALID,5,VALID,0.629687,
2009-06-23, 02:28:05,VALID,1003.73,VALID,0,VALID,86.2903,VALID,0,VALID,25.1832,VALID,4,VALID,0.564844,
2009-06-23, 02:29:05,VALID,1003.73,VALID,0,VALID,86.2064,VALID,0,VALID,25.1442,VALID,9,VALID,0.645703,
2009-06-23, 02:30:05,VALID,1003.7,VALID,0,VALID,86.0767,VALID,0,VALID,25.1229,VALID,23,VALID,0.583594,
2009-06-23, 02:31:05,VALID,1003.7,VALID,0,VALID,86.3055,VALID,0,VALID,25.1442,VALID,21,VALID,0.309375,
2009-06-23, 02:32:05,VALID,1003.69,VALID,0,VALID,86.3742,VALID,0,VALID,25.0858,VALID,18,VALID,0.863281,
2009-06-23, 02:33:05,VALID,1003.65,VALID,0,VALID,85.4053,VALID,0,VALID,25.1423,VALID,350,VALID,1.12773,
2009-06-23, 02:34:05,VALID,1003.65,VALID,0,VALID,85.5198,VALID,0,VALID,25.2611,VALID,360,VALID,0.628906,
2009-06-23, 02:35:05,VALID,1003.65,VALID,0,VALID,85.4587,VALID,0,VALID,25.2592,VALID,4,VALID,0.460547,
2009-06-23, 02:36:05,VALID,1003.59,VALID,0,VALID,85.2985,VALID,0,VALID,25.2806,VALID,22,VALID,0.872656,
2009-06-23, 02:37:05,VALID,1003.57,VALID,0,VALID,85.4282,VALID,0,VALID,25.2786,VALID,17,VALID,0.999609,
2009-06-23, 02:38:05,VALID,1003.57,VALID,0,VALID,84.9476,VALID,0,VALID,25.3584,VALID,22,VALID,1.19492,
2009-06-23, 02:39:05,VALID,1003.54,VALID,0,VALID,84.9705,VALID,0,VALID,25.4149,VALID,26,VALID,0.962109,
2009-06-23, 02:40:05,VALID,1003.55,VALID,0,VALID,84.7111,VALID,0,VALID,25.4558,VALID,19,VALID,1.13789,
2009-06-23, 02:41:05,VALID,1003.51,VALID,0,VALID,84.4822,VALID,0,VALID,25.4753,VALID,14,VALID,0.923828,
2009-06-23, 02:42:05,VALID,1003.49,VALID,0,VALID,84.2686,VALID,0,VALID,25.5337,VALID,20,VALID,0.972266,
2009-06-23, 02:43:05,VALID,1003.47,VALID,0,VALID,83.8643,VALID,0,VALID,25.5727,VALID,28,VALID,1.62305,
2009-06-23, 02:44:05,VALID,1003.48,VALID,0,VALID,83.5896,VALID,0,VALID,25.67,VALID,13,VALID,0.799219,
2009-06-23, 02:45:05,VALID,1003.44,VALID,0,VALID,83.7422,VALID,0,VALID,25.6895,VALID,6,VALID,0.622656,
2009-06-23, 02:46:05,VALID,1003.43,VALID,0,VALID,83.7498,VALID,0,VALID,25.6097,VALID,3,VALID,0.576172,
2009-06-23, 02:47:05,VALID,1003.43,VALID,0,VALID,83.9787,VALID,0,VALID,25.6116,VALID,21,VALID,0.733203,
2009-06-23, 02:48:05,VALID,1003.4,VALID,0,VALID,83.9482,VALID,0,VALID,25.6506,VALID,29,VALID,1.15156,
2009-06-23, 02:49:05,VALID,1003.38,VALID,0,VALID,83.8719,VALID,0,VALID,25.67,VALID,24,VALID,0.730859,
2009-06-23, 02:50:05,VALID,1003.36,VALID,0,VALID,84.0169,VALID,0,VALID,25.6506,VALID,24,VALID,0.896094,
2009-06-23, 02:51:05,VALID,1003.33,VALID,0,VALID,84.4136,VALID,0,VALID,25.6116,VALID,60,VALID,0.655469,
2009-06-23, 02:52:05,VALID,1003.32,VALID,0,VALID,84.7721,VALID,0,VALID,25.5727,VALID,4,VALID,0.438672,
2009-06-23, 02:53:05,VALID,1003.32,VALID,0,VALID,85.3901,VALID,0,VALID,25.4948,VALID,6,VALID,0.508203,
2009-06-23, 02:54:05,VALID,1003.31,VALID,0,VALID,85.6037,VALID,0,VALID,25.3974,VALID,14,VALID,0.674219,
2009-06-23, 02:55:05,VALID,1003.29,VALID,0,VALID,85.8173,VALID,0,VALID,25.339,VALID,28,VALID,0.992188,
2009-06-23, 02:56:05,VALID,1003.27,VALID,0,VALID,85.9546,VALID,0,VALID,25.339,VALID,28,VALID,0.431641,
2009-06-23, 02:57:05,VALID,1003.27,VALID,0,VALID,85.8707,VALID,0,VALID,25.3,VALID,14,VALID,1.38008,
2009-06-23, 02:58:05,VALID,1003.26,VALID,0,VALID,85.7639,VALID,0,VALID,25.337,VALID,19,VALID,0.802734,
2009-06-23, 02:59:05,VALID,1003.27,VALID,0,VALID,85.5884,VALID,0,VALID,25.3779,VALID,32,VALID,0.995703,
2009-06-23, 03:00:04,VALID,1003.23,VALID,0,VALID,85.3061,VALID,0.100563,VALID,25.376,VALID,22,VALID,1.04258,
2009-06-23, 03:01:04,VALID,1003.23,VALID,0,VALID,85.3977,VALID,0,VALID,25.4149,VALID,11,VALID,0.767578,
2009-06-23, 03:02:04,VALID,1003.23,VALID,0,VALID,84.7645,VALID,0,VALID,25.5142,VALID,12,VALID,0.752344,
2009-06-23, 03:03:04,VALID,1003.22,VALID,0,VALID,84.9247,VALID,0,VALID,25.5337,VALID,18,VALID,0.684766,
2009-06-23, 03:04:04,VALID,1003.21,VALID,0,VALID,84.4593,VALID,0,VALID,25.5337,VALID,21,VALID,0.786328,
2009-06-23, 03:05:04,VALID,1003.16,VALID,0,VALID,84.6424,VALID,0,VALID,25.5921,VALID,21,VALID,0.691016,
2009-06-23, 03:06:04,VALID,1003.18,VALID,0,VALID,84.6958,VALID,0,VALID,25.5532,VALID,30,VALID,0.779688,
2009-06-23, 03:07:04,VALID,1003.15,VALID,0,VALID,85.1002,VALID,0,VALID,25.5142,VALID,24,VALID,0.630469,
2009-06-23, 03:08:04,VALID,1003.14,VALID,0,VALID,84.7797,VALID,0,VALID,25.4772,VALID,22,VALID,1.1707,
2009-06-23, 03:09:04,VALID,1003.12,VALID,0,VALID,85.2146,VALID,0,VALID,25.4558,VALID,17,VALID,0.878516,
2009-06-23, 03:10:04,VALID,1003.1,VALID,0,VALID,84.6958,VALID,0,VALID,25.4753,VALID,23,VALID,1.26055,
2009-06-23, 03:11:04,VALID,1003.11,VALID,0,VALID,84.6806,VALID,0,VALID,25.4948,VALID,3,VALID,0.786719,
2009-06-23, 03:12:04,VALID,1003.09,VALID,0,VALID,84.5204,VALID,0,VALID,25.4928,VALID,16,VALID,0.870313,
2009-06-23, 03:13:04,VALID,1003.1,VALID,0,VALID,84.2457,VALID,0,VALID,25.5921,VALID,15,VALID,0.675,
2009-06-23, 03:14:04,VALID,1003.08,VALID,0,VALID,84.1694,VALID,0,VALID,25.5727,VALID,31,VALID,0.894141,
2009-06-23, 03:15:04,VALID,1003.07,VALID,0,VALID,84.2686,VALID,0.100563,VALID,25.5921,VALID,29,VALID,0.609766,
2009-06-23, 03:16:04,VALID,1003.07,VALID,0,VALID,84.1084,VALID,0,VALID,25.5921,VALID,353,VALID,0.584766,
2009-06-23, 03:17:04,VALID,1003.08,VALID,0,VALID,84.0321,VALID,0,VALID,25.5727,VALID,354,VALID,0.221484,
2009-06-23, 03:18:04,VALID,1003.06,VALID,0,VALID,84.3373,VALID,0,VALID,25.5532,VALID,11,VALID,0.835547,
2009-06-23, 03:19:04,VALID,1003.07,VALID,0,VALID,84.4136,VALID,0,VALID,25.4928,VALID,20,VALID,0.815234,
2009-06-23, 03:20:04,VALID,1003.06,VALID,0,VALID,83.4676,VALID,0.100563,VALID,25.5921,VALID,16,VALID,0.494531,
2009-06-23, 03:21:04,VALID,1003.09,VALID,0,VALID,83.9863,VALID,0,VALID,25.6506,VALID,16,VALID,0.6,
2009-06-23, 03:22:04,VALID,1003.04,VALID,0,VALID,84.3525,VALID,0,VALID,25.5921,VALID,16,VALID,0.384766,
2009-06-23, 03:23:04,VALID,1003.07,VALID,0,VALID,84.0626,VALID,0,VALID,25.5142,VALID,14,VALID,0.796484,
2009-06-23, 03:24:04,VALID,1003.06,VALID,0,VALID,84.7187,VALID,0,VALID,25.4948,VALID,36,VALID,0.642187,
2009-06-23, 03:25:04,VALID,1003.07,VALID,0,VALID,85.0086,VALID,0,VALID,25.4363,VALID,36,VALID,0.313281,
2009-06-23, 03:26:04,VALID,1003.07,VALID,0,VALID,85.4587,VALID,0,VALID,25.3584,VALID,36,VALID,0.367969,
2009-06-23, 03:27:04,VALID,1003.06,VALID,0,VALID,85.7944,VALID,0,VALID,25.3019,VALID,36,VALID,0.229687,
2009-06-23, 03:28:04,VALID,1003.06,VALID,0,VALID,85.6037,VALID,0,VALID,25.2416,VALID,40,VALID,1.06367,
2009-06-23, 03:29:04,VALID,1003.07,VALID,0,VALID,85.9241,VALID,0,VALID,25.2416,VALID,23,VALID,0.670703,
2009-06-23, 03:30:04,VALID,1003.08,VALID,0,VALID,85.7181,VALID,0,VALID,25.2221,VALID,22,VALID,1.10312,
2009-06-23, 03:31:04,VALID,1003.1,VALID,0,VALID,85.9012,VALID,0,VALID,25.2416,VALID,18,VALID,0.571484,
2009-06-23, 03:32:04,VALID,1003.08,VALID,0,VALID,85.7028,VALID,0,VALID,25.2416,VALID,51,VALID,0.534375,
2009-06-23, 03:33:04,VALID,1003.1,VALID,0,VALID,85.535,VALID,0,VALID,25.2007,VALID,31,VALID,0.632813,
2009-06-23, 03:34:04,VALID,1003.12,VALID,0,VALID,84.9934,VALID,0,VALID,25.2397,VALID,31,VALID,0.679297,
2009-06-23, 03:35:04,VALID,1003.13,VALID,0,VALID,84.7874,VALID,0,VALID,25.339,VALID,30,VALID,0.729297,
2009-06-23, 03:36:04,VALID,1003.13,VALID,0,VALID,85.207,VALID,0,VALID,25.3584,VALID,19,VALID,0.584375,
2009-06-23, 03:37:04,VALID,1003.13,VALID,0,VALID,84.4517,VALID,0,VALID,25.3584,VALID,25,VALID,0.953906,
2009-06-23, 03:38:04,VALID,1003.14,VALID,0,VALID,84.383,VALID,0,VALID,25.4169,VALID,24,VALID,0.390234,
2009-06-23, 03:39:04,VALID,1003.17,VALID,0,VALID,84.055,VALID,0,VALID,25.4558,VALID,22,VALID,0.836328,
2009-06-23, 03:40:04,VALID,1003.18,VALID,0,VALID,84.0931,VALID,0,VALID,25.5142,VALID,35,VALID,0.412891,
2009-06-23, 03:41:04,VALID,1003.17,VALID,0,VALID,83.3226,VALID,0,VALID,25.5532,VALID,25,VALID,0.943359,
2009-06-23, 03:42:04,VALID,1003.15,VALID,0,VALID,82.5826,VALID,0,VALID,25.6311,VALID,36,VALID,0.610156,
2009-06-23, 03:43:04,VALID,1003.15,VALID,0,VALID,83.5591,VALID,0,VALID,25.6895,VALID,17,VALID,0.716797,
2009-06-23, 03:44:04,VALID,1003.16,VALID,0,VALID,83.7956,VALID,0,VALID,25.5727,VALID,32,VALID,0.903516,
2009-06-23, 03:45:04,VALID,1003.15,VALID,0,VALID,83.9482,VALID,0,VALID,25.5532,VALID,2,VALID,0.959375,